Volver al catálogo

GEESAT 1-09

ActivoComunicacionesVLEO
NORAD 52793·PAYLOAD·🇨🇳 China

Lanzado Jun 2, 2022 desde Xichang Satellite Launch Center

Loading…

Próximos Pases (próximas 24 horas)

TLE

ActualizadoSource: Space-Track

Época: Sep 14, 2026, 22:16 UTC

1 52793U 22058J   26257.92782051  .00003206  00000-0  26759-3 0  9992
2 52793  49.9962 114.5441 0006673 161.6239 198.4949 15.01138824233721

Sigue GEESAT 1-09 en tiempo real con AllMySat

Download on the App Store